Starlink 30614

operational
NORAD ID: 58098 Int'l Des: 2023-161 Owner: SPXS Country: US Constellation: starlink
LEOCIRCULAR

Starlink 30614について

説明を読み込み中...

リアルタイム位置

3D地球を読み込み中...

次回通過

高度履歴

Altitude vs Time

uPlot chart will show altitude changes over time

軌道要素

1 58098U 23161B 25302.47935874 .00004155 00000-0 15231-3 0 9992
2 58098 53.1584 54.9293 0001268 98.7245 261.3899 15.30204512114335
Epoch: Oct 29, 2025 • Age: 7 hours

現在のステータス

高度 480.2 km
速度 7.63 km/s
衛星直下点 50.14°N, 141.46°W
打ち上げ日 Oct 21, 2023
運用期間 2 years
タイプ internet

技術仕様

分類 Payload
質量 730.00 kg
乾燥質量 700.00 kg
総質量 730.00 kg
長さ 0.30 m
直径 4.10 m
スパン 29.00 m
形状 Box + pan
製造者 SPXS
バスタイプ Starlink V2M
フェーズステータス In Orbit
所有者/国 SPXS/US

大規模コンステレーション

Loading constellations...